TimeAKDT,TemperatureF,Dew PointF,Humidity,Sea Level PressureIn,VisibilityMPH,Wind Direction,Wind SpeedMPH,Gust SpeedMPH,PrecipitationIn,Events,Conditions,WindDirDegrees,DateUTC
12:16 AM,21.2,17.6,86,30.31,10.0,Calm,Calm,-,N/A,,Overcast,0,2012-10-09 08:16:00
12:36 AM,23.0,19.4,86,30.31,10.0,NE,3.5,-,N/A,,Overcast,50,2012-10-09 08:36:00
12:56 AM,24.8,21.2,86,30.32,10.0,Calm,Calm,-,N/A,,Overcast,0,2012-10-09 08:56:00
1:16 AM,26.6,21.2,80,30.33,10.0,Calm,Calm,-,N/A,,Overcast,0,2012-10-09 09:16:00
1:36 AM,26.6,24.8,93,30.34,10.0,NNE,3.5,-,N/A,,Overcast,30,2012-10-09 09:36:00
1:56 AM,26.6,24.8,93,30.34,10.0,Calm,Calm,-,N/A,,Overcast,0,2012-10-09 09:56:00
2:16 AM,26.6,23.0,86,30.35,10.0,NNE,3.5,-,N/A,,Overcast,30,2012-10-09 10:16:00
2:36 AM,26.6,23.0,86,30.36,10.0,Calm,Calm,-,N/A,,Overcast,0,2012-10-09 10:36:00
2:56 AM,26.6,24.8,93,30.36,10.0,NNE,4.6,-,N/A,,Overcast,20,2012-10-09 10:56:00
3:16 AM,28.4,24.8,86,30.36,10.0,North,5.8,-,N/A,,Overcast,10,2012-10-09 11:16:00
3:36 AM,28.4,24.8,86,30.37,10.0,NNE,5.8,-,N/A,,Overcast,20,2012-10-09 11:36:00
3:56 AM,28.4,23.0,80,30.37,10.0,NNE,6.9,-,N/A,,Mostly Cloudy,30,2012-10-09 11:56:00
4:16 AM,26.6,21.2,80,30.38,10.0,NNE,5.8,-,N/A,,Mostly Cloudy,30,2012-10-09 12:16:00
4:36 AM,28.4,21.2,74,30.38,10.0,NNE,5.8,-,N/A,,Mostly Cloudy,20,2012-10-09 12:36:00
4:56 AM,28.4,19.4,69,30.38,10.0,NNE,5.8,-,N/A,,Mostly Cloudy,20,2012-10-09 12:56:00
5:16 AM,26.6,19.4,74,30.39,10.0,North,5.8,-,N/A,,Mostly Cloudy,10,2012-10-09 13:16:00
5:36 AM,28.4,19.4,69,30.39,10.0,NNE,6.9,-,N/A,,Overcast,20,2012-10-09 13:36:00
5:56 AM,28.4,19.4,69,30.40,10.0,NNE,6.9,-,N/A,,Overcast,30,2012-10-09 13:56:00
6:16 AM,28.4,19.4,69,30.40,10.0,NNE,8.1,-,N/A,,Overcast,20,2012-10-09 14:16:00
6:36 AM,28.4,19.4,69,30.41,10.0,NNE,6.9,-,N/A,,Overcast,30,2012-10-09 14:36:00
7:16 AM,28.4,21.2,74,30.41,10.0,NNE,6.9,-,N/A,,Overcast,20,2012-10-09 15:16:00
7:36 AM,28.4,21.2,74,30.42,10.0,NNE,4.6,-,N/A,,Overcast,30,2012-10-09 15:36:00
7:56 AM,28.4,21.2,74,30.42,10.0,NNE,5.8,-,N/A,,Mostly Cloudy,20,2012-10-09 15:56:00
8:16 AM,28.4,23.0,80,30.43,10.0,NNE,6.9,-,N/A,,Mostly Cloudy,30,2012-10-09 16:16:00
8:36 AM,28.4,24.8,86,30.43,10.0,NNE,6.9,-,N/A,,Mostly Cloudy,30,2012-10-09 16:36:00
8:56 AM,28.4,24.8,86,30.44,10.0,NNE,8.1,-,N/A,,Mostly Cloudy,30,2012-10-09 16:56:00
9:16 AM,28.4,24.8,86,30.44,10.0,NE,8.1,-,N/A,,Mostly Cloudy,40,2012-10-09 17:16:00
9:36 AM,28.4,24.8,86,30.45,10.0,NNE,8.1,-,N/A,,Mostly Cloudy,30,2012-10-09 17:36:00
9:56 AM,28.4,24.8,86,30.45,10.0,NE,8.1,-,N/A,,Mostly Cloudy,40,2012-10-09 17:56:00
10:16 AM,28.4,24.8,86,30.45,10.0,NE,9.2,-,N/A,,Scattered Clouds,40,2012-10-09 18:16:00
10:36 AM,28.4,24.8,86,30.46,10.0,NE,8.1,-,N/A,,Scattered Clouds,50,2012-10-09 18:36:00
10:56 AM,30.2,24.8,80,30.47,10.0,NE,8.1,-,N/A,,Scattered Clouds,40,2012-10-09 18:56:00
11:16 AM,33.8,24.8,70,30.47,10.0,NE,12.7,-,N/A,,Mostly Cloudy,50,2012-10-09 19:16:00
11:36 AM,32.0,24.8,75,30.47,10.0,NE,8.1,-,N/A,,Mostly Cloudy,50,2012-10-09 19:36:00
11:56 AM,33.8,24.8,70,30.48,10.0,ENE,8.1,-,N/A,,Mostly Cloudy,60,2012-10-09 19:56:00
12:16 PM,33.8,23.0,65,30.48,10.0,ENE,6.9,-,N/A,,Overcast,60,2012-10-09 20:16:00
12:36 PM,33.8,23.0,65,30.48,10.0,ENE,5.8,-,N/A,,Mostly Cloudy,70,2012-10-09 20:36:00
12:56 PM,33.8,21.2,60,30.48,10.0,NE,9.2,-,N/A,,Scattered Clouds,50,2012-10-09 20:56:00
1:16 PM,35.6,23.0,60,30.48,10.0,NE,6.9,-,N/A,,Scattered Clouds,50,2012-10-09 21:16:00
1:36 PM,35.6,23.0,60,30.48,10.0,NNE,9.2,-,N/A,,Scattered Clouds,30,2012-10-09 21:36:00
1:56 PM,35.6,21.2,56,30.48,10.0,ENE,6.9,-,N/A,,Scattered Clouds,60,2012-10-09 21:56:00
2:16 PM,35.6,23.0,60,30.48,10.0,NNE,10.4,-,N/A,,Scattered Clouds,30,2012-10-09 22:16:00
2:36 PM,35.6,23.0,60,30.49,10.0,NE,9.2,-,N/A,,Scattered Clouds,40,2012-10-09 22:36:00
2:56 PM,35.6,21.2,56,30.49,10.0,NE,8.1,-,N/A,,Scattered Clouds,50,2012-10-09 22:56:00
3:16 PM,35.6,21.2,56,30.49,10.0,NE,10.4,-,N/A,,Clear,50,2012-10-09 23:16:00
3:36 PM,35.6,21.2,56,30.49,10.0,NE,8.1,-,N/A,,Partly Cloudy,40,2012-10-09 23:36:00
3:56 PM,35.6,19.4,52,30.49,10.0,NE,11.5,-,N/A,,Partly Cloudy,40,2012-10-09 23:56:00
4:16 PM,35.6,19.4,52,30.50,10.0,NE,9.2,-,N/A,,Partly Cloudy,50,2012-10-10 00:16:00
4:36 PM,35.6,19.4,52,30.50,10.0,ENE,10.4,-,N/A,,Clear,60,2012-10-10 00:36:00
4:56 PM,35.6,19.4,52,30.50,10.0,ENE,9.2,-,N/A,,Clear,60,2012-10-10 00:56:00
5:16 PM,35.6,17.6,48,30.50,10.0,NE,8.1,-,N/A,,Clear,50,2012-10-10 01:16:00
5:36 PM,35.6,17.6,48,30.49,10.0,NE,10.4,-,N/A,,Clear,40,2012-10-10 01:36:00
5:56 PM,33.8,19.4,56,30.49,10.0,NE,6.9,-,N/A,,Clear,40,2012-10-10 01:56:00
6:16 PM,33.8,19.4,56,30.49,10.0,NE,4.6,-,N/A,,Clear,40,2012-10-10 02:16:00
6:36 PM,30.2,19.4,64,30.49,10.0,NNE,4.6,-,N/A,,Clear,30,2012-10-10 02:36:00
6:56 PM,30.2,17.6,60,30.49,10.0,NNE,5.8,-,N/A,,Clear,30,2012-10-10 02:56:00
7:16 PM,30.2,17.6,60,30.49,10.0,NNE,5.8,-,N/A,,Clear,30,2012-10-10 03:16:00
7:36 PM,30.2,17.6,60,30.49,10.0,NNE,6.9,-,N/A,,Clear,30,2012-10-10 03:36:00
7:56 PM,30.2,17.6,60,30.49,10.0,NE,6.9,-,N/A,,Clear,40,2012-10-10 03:56:00
8:16 PM,28.4,17.6,64,30.49,10.0,NE,6.9,-,N/A,,Clear,40,2012-10-10 04:16:00
8:36 PM,28.4,17.6,64,30.49,10.0,NE,6.9,-,N/A,,Clear,40,2012-10-10 04:36:00
8:56 PM,28.4,17.6,64,30.49,10.0,NE,5.8,-,N/A,,Clear,40,2012-10-10 04:56:00
9:16 PM,28.4,17.6,64,30.49,10.0,NE,6.9,-,N/A,,Clear,40,2012-10-10 05:16:00
9:36 PM,26.6,17.6,69,30.49,10.0,NE,5.8,-,N/A,,Clear,40,2012-10-10 05:36:00
9:56 PM,26.6,17.6,69,30.49,10.0,NE,5.8,-,N/A,,Clear,40,2012-10-10 05:56:00
10:16 PM,26.6,17.6,69,30.49,10.0,NE,5.8,-,N/A,,Clear,50,2012-10-10 06:16:00
10:36 PM,26.6,15.8,64,30.49,10.0,NE,6.9,-,N/A,,Clear,40,2012-10-10 06:36:00
10:56 PM,24.8,17.6,74,30.49,10.0,NE,5.8,-,N/A,,Clear,40,2012-10-10 06:56:00
11:16 PM,24.8,15.8,69,30.49,10.0,NE,5.8,-,N/A,,Clear,50,2012-10-10 07:16:00
11:36 PM,24.8,15.8,69,30.49,10.0,NE,5.8,-,N/A,,Clear,40,2012-10-10 07:36:00
11:56 PM,24.8,15.8,69,30.49,10.0,NNE,6.9,-,N/A,,Clear,30,2012-10-10 07:56:00